[[{"header":{"parameterUnit":"m.s-1","parameterCategory":1,"la1":30.2991,"la2":30.254,"lo1":-89.0895,"lo2":-89.0444,"dy":0.0017,"dx":0.0017,"nx":28,"ny":28,"refTime":"2023-10-30T03:00:00:Z","depth":0,"parameterNumber":2,"parameterNumberName":"U-component_of_WINDS"},"data":[0,0,0,0,0,0,0,0,0,0,0,0,0,0,0,0,0,0,0,0,0,0,0,0,0,0,0,0,0,0,0,0,0,0,0,0,0,0,0,0,0,0,0,0,0,0,0,0,0,0,0,0,0,0,0,0,0,0,-0.0109,-0.011,0,-0.0138,-0.0138,-0.0139,-0.0131,-0.013,-0.013,-0.0129,-0.016,-0.0161,-0.0163,0,0,0,0,0,0,0,0,0,0,0,0,0,-0.0048,-0.0049,-0.0109,-0.011,-0.011,-0.0138,-0.0138,-0.0139,-0.0131,-0.013,-0.0129,-0.0129,-0.016,-0.0161,-0.0163,0,0,0,0,0,0,0,0,0,0,0,0,0,-0.0076,-0.005,-0.0109,-0.0109,-0.011,-0.0138,-0.0138,-0.0139,-0.0131,-0.013,-0.0129,-0.0128,-0.0159,-0.0161,-0.0163,-0.0194,0,0,-0.0169,-0.017,0,0,0,0,0,0,0,0,-0.0074,-0.0078,-0.0109,-0.0109,-0.011,-0.013,-0.0128,-0.0157,-0.0131,-0.0123,-0.0129,-0.0128,-0.0151,-0.0154,-0.0161,-0.0195,-0.0196,-0.017,-0.0171,-0.0172,-0.0172,0,0,0,0,0,0,0,-0.0072,-0.0077,-0.0121,-0.0109,-0.011,-0.0108,-0.0111,-0.0134,-0.0142,-0.0124,-0.0123,-0.0127,-0.0151,-0.0159,-0.0162,-0.0197,-0.017,-0.0171,-0.0173,-0.0174,-0.0257,-0.0258,0,0,0,0,0,0,-0.007,-0.0075,-0.012,-0.0122,-0.0089,-0.011,-0.0113,-0.0124,-0.0141,-0.0143,-0.0127,-0.0126,-0.0156,-0.0159,-0.0163,-0.0199,-0.0172,-0.0174,-0.0175,-0.0256,-0.0257,-0.0258,0,0,0,0,0,0,-0.0069,-0.0074,-0.0119,-0.0098,-0.0104,-0.0112,-0.0125,-0.0125,-0.0133,-0.0144,-0.0146,-0.0134,-0.0155,-0.016,-0.0186,-0.02,-0.0175,-0.0177,-0.0255,-0.0257,-0.0258,-0.0273,0,0,0,0,0,0,-0.0067,-0.0073,-0.0085,-0.0098,-0.0105,-0.0141,-0.0125,-0.0127,-0.0137,-0.0136,-0.0151,-0.0152,-0.0155,-0.0183,-0.0188,-0.0203,-0.0178,-0.0254,-0.0256,-0.0258,-0.0271,-0.0275,-0.0278,0,0,0,0,0,-0.0065,-0.0088,-0.0086,-0.0091,-0.0119,-0.0142,-0.0145,-0.0148,-0.0138,-0.015,-0.0156,-0.0152,-0.0198,-0.0186,-0.0191,-0.0207,-0.0253,-0.0255,-0.0257,-0.027,-0.0274,-0.0278,0,0,0,0,0,0,-0.0077,-0.009,-0.0087,-0.0116,-0.0128,-0.014,-0.0155,-0.0152,-0.0167,-0.0165,-0.0168,-0.0171,-0.0198,-0.0205,-0.0191,-0.0237,-0.0224,-0.0228,-0.0231,-0.0236,-0.0239,-0.0237,-0.018,0,0,0,0,0,-0.0083,-0.01,-0.011,-0.0135,-0.0141,-0.0147,-0.0157,-0.0157,-0.017,-0.0175,-0.0184,-0.0196,-0.0214,-0.0225,-0.0242,-0.0272,-0.0275,-0.0286,-0.0289,-0.0292,-0.0295,-0.0311,-0.0316,-0.0266,-0.0266,-0.0266,0,0,-0.0095,-0.0105,-0.0115,-0.0137,-0.0147,-0.0164,-0.0151,-0.0171,-0.0184,-0.0178,-0.0203,-0.021,-0.0224,-0.0253,-0.0266,-0.0259,-0.0309,-0.0294,-0.0296,-0.0298,-0.0314,-0.0319,-0.0323,-0.0267,-0.0267,-0.0267,0,0,-0.0127,-0.0136,-0.0157,-0.0166,-0.018,-0.0184,-0.0189,-0.0202,-0.0206,-0.0231,-0.0227,-0.0243,-0.0273,-0.0283,-0.0293,-0.0328,-0.0325,-0.0333,-0.0351,-0.0367,-0.0371,-0.0374,-0.0387,-0.0392,-0.0336,-0.0336,-0.0336,0,-0.0141,-0.0167,-0.0168,-0.0188,-0.0198,-0.0193,-0.0214,-0.0223,-0.0242,-0.0249,-0.0242,-0.0279,-0.0288,-0.0319,-0.0327,-0.0335,-0.0341,-0.0332,-0.037,-0.0374,-0.0377,-0.0389,-0.0394,-0.0337,-0.0337,-0.0337,-0.0337,0,-0.0184,-0.0202,-0.0217,-0.0235,-0.0247,-0.0267,-0.0271,-0.0283,-0.0282,-0.0287,-0.0313,-0.0324,-0.0342,-0.0349,-0.0349,-0.038,-0.0376,-0.0369,-0.0356,-0.0383,-0.0394,-0.0399,-0.0339,-0.0338,-0.0338,-0.0338,0,0,-0.0225,-0.0242,-0.0248,-0.0256,-0.027,-0.0285,-0.0305,-0.0322,-0.0332,-0.0345,-0.0363,-0.0388,-0.0381,-0.0392,-0.0393,-0.0407,-0.0434,-0.0399,-0.0399,-0.0405,-0.0469,-0.0474,-0.0479,-0.0432,-0.0433,-0.0434,-0.0468,0,-0.0258,-0.0293,-0.0294,-0.0326,-0.0343,-0.0338,-0.0356,-0.0367,-0.0372,-0.0387,-0.0393,-0.0411,-0.0401,-0.0407,-0.0421,-0.0428,-0.0447,-0.0426,-0.0449,-0.0449,-0.0445,-0.0485,-0.0491,-0.0523,-0.0472,-0.0473,-0.0474,0,-0.0301,-0.0315,-0.0349,-0.0361,-0.0368,-0.0384,-0.04,-0.0414,-0.0427,-0.0429,-0.0441,-0.044,-0.0461,-0.0447,-0.0476,-0.0461,-0.0471,-0.0475,-0.0477,-0.0479,-0.0463,-0.0489,-0.0533,-0.0538,-0.0481,-0.048,-0.048,0,-0.0328,-0.0355,-0.0378,-0.0385,-0.04,-0.0411,-0.0418,-0.0429,-0.044,-0.0454,-0.0461,-0.0477,-0.0487,-0.05,-0.0503,-0.0493,-0.0533,-0.0519,-0.0536,-0.0536,-0.0544,-0.0544,-0.059,-0.055,-0.055,-0.055,-0.055,0,-0.0365,-0.0385,-0.039,-0.0405,-0.0428,-0.0429,-0.0452,-0.0458,-0.0468,-0.0484,-0.0481,-0.0497,-0.05,-0.0516,-0.0519,-0.0543,-0.0547,-0.055,-0.0551,-0.055,-0.055,-0.0557,-0.0555,-0.0551,-0.0551,-0.0551,-0.0551,0,-0.0398,-0.0402,-0.0427,-0.0439,-0.0442,-0.0459,-0.0469,-0.0483,-0.0487,-0.0507,-0.0512,-0.0519,-0.0538,-0.0543,-0.0565,-0.0567,-0.0595,-0.0594,-0.0591,-0.0591,-0.0607,-0.0606,-0.066,-0.0667,-0.0622,-0.0622,-0.0623,0,-0.0422,-0.0437,-0.045,-0.046,-0.0467,-0.0484,-0.0494,-0.0496,-0.0507,-0.0522,-0.0535,-0.0553,-0.0567,-0.0597,-0.0605,-0.0622,-0.0621,-0.0639,-0.0623,-0.0623,-0.0621,-0.062,-0.0622,-0.0642,-0.0642,-0.0642,-0.0643,0,-0.0463,-0.0464,-0.0478,-0.0494,-0.0506,-0.0518,-0.053,-0.0539,-0.0542,-0.0555,-0.0574,-0.0585,-0.0607,-0.0625,-0.0642,-0.065,-0.0647,-0.0647,-0.0652,-0.0652,-0.065,-0.0651,-0.0599,-0.0646,-0.0646,-0.0646,-0.0645,-0.0645,-0.0492,-0.0505,-0.0516,-0.0533,-0.0542,-0.0553,-0.0567,-0.0572,-0.0588,-0.0606,-0.0606,-0.0626,-0.0638,-0.0661,-0.067,-0.0686,-0.068,-0.0687,-0.0689,-0.0691,-0.0692,-0.0647,-0.0689,-0.0689,-0.0689,-0.0689,-0.0689,0,-0.0533,-0.0539,-0.0554,-0.0571,-0.0584,-0.0579,-0.0592,-0.0603,-0.0621,-0.0632,-0.0646,-0.0668,-0.0685,-0.0694,-0.0711,-0.0723,-0.0722,-0.0727,-0.0726,-0.0728,-0.0696,-0.069,-0.0728,-0.0727,-0.0727,-0.0727,-0.0727,-0.0727,-0.0555,-0.0578,-0.058,-0.0608,-0.0614,-0.0634,-0.0641,-0.0652,-0.0661,-0.0684,-0.0698,-0.0704,-0.0714,-0.0732,-0.0748,-0.075,-0.0757,-0.0763,-0.0765,-0.0734,-0.0731,-0.0727,-0.0721,-0.0765,-0.0765,-0.0796,-0.0796,-0.0796]},{"header":{"parameterUnit":"m.s-1","parameterCategory":1,"la1":30.2991,"la2":30.254,"lo1":-89.0895,"lo2":-89.0444,"dy":0.0017,"dx":0.0017,"nx":28,"ny":28,"refTime":"2023-10-30T03:00:00:Z","depth":0,"parameterNumber":3,"parameterNumberName":"V-component_of_WINDS"},"data":[0,0,0,0,0,0,0,0,0,0,0,0,0,0,0,0,0,0,0,0,0,0,0,0,0,0,0,0,0,0,0,0,0,0,0,0,0,0,0,0,0,0,0,0,0,0,0,0,0,0,0,0,0,0,0,0,0,0,-1.7529,-1.753,0,-1.7609,-1.761,-1.7611,-1.7612,-1.7611,-1.761,-1.7609,-1.769,-1.7693,-1.7696,0,0,0,0,0,0,0,0,0,0,0,0,0,-1.7376,-1.7378,-1.7529,-1.753,-1.7531,-1.7609,-1.761,-1.7611,-1.7612,-1.7611,-1.761,-1.7609,-1.7689,-1.7692,-1.7696,0,0,0,0,0,0,0,0,0,0,0,0,0,-1.7448,-1.7379,-1.7529,-1.7541,-1.7543,-1.7609,-1.761,-1.7611,-1.7613,-1.7611,-1.761,-1.7608,-1.7687,-1.7692,-1.7696,-1.7755,0,0,-1.771,-1.7712,0,0,0,0,0,0,0,0,-1.7443,-1.7453,-1.7538,-1.754,-1.7542,-1.7599,-1.7585,-1.7659,-1.7613,-1.7586,-1.7609,-1.7607,-1.7661,-1.7667,-1.7686,-1.7758,-1.7762,-1.7711,-1.7714,-1.7716,-1.7717,0,0,0,0,0,0,0,-1.7438,-1.745,-1.756,-1.7539,-1.7542,-1.7542,-1.7551,-1.7599,-1.7631,-1.7588,-1.7589,-1.7598,-1.7661,-1.7681,-1.7687,-1.7763,-1.7711,-1.7715,-1.7718,-1.7719,-1.7889,-1.7891,0,0,0,0,0,0,-1.7431,-1.7446,-1.7558,-1.7563,-1.7488,-1.7546,-1.7556,-1.7582,-1.763,-1.7636,-1.7599,-1.7598,-1.7674,-1.7682,-1.769,-1.7763,-1.7716,-1.772,-1.7723,-1.7888,-1.789,-1.7892,0,0,0,0,0,0,-1.7428,-1.7441,-1.7555,-1.7504,-1.7519,-1.755,-1.758,-1.7585,-1.7604,-1.7639,-1.7644,-1.7614,-1.7673,-1.7684,-1.7739,-1.7766,-1.7722,-1.7726,-1.7886,-1.7888,-1.7891,-1.7909,0,0,0,0,0,0,-1.7424,-1.744,-1.7463,-1.7505,-1.7521,-1.7603,-1.7582,-1.7587,-1.7613,-1.7612,-1.7654,-1.7659,-1.7673,-1.7732,-1.7744,-1.7772,-1.773,-1.7883,-1.7887,-1.789,-1.7906,-1.7912,-1.7917,0,0,0,0,0,-1.7418,-1.7464,-1.7464,-1.7477,-1.7551,-1.7604,-1.7614,-1.7629,-1.7615,-1.7638,-1.766,-1.7658,-1.7761,-1.7738,-1.7751,-1.778,-1.7882,-1.7886,-1.789,-1.7904,-1.7911,-1.7917,0,0,0,0,0,0,-1.7423,-1.747,-1.747,-1.7531,-1.7564,-1.7604,-1.7634,-1.7636,-1.7673,-1.767,-1.7687,-1.7696,-1.7752,-1.7771,-1.7745,-1.784,-1.782,-1.7826,-1.7826,-1.7833,-1.7838,-1.7833,-1.7734,0,0,0,0,0,-1.7432,-1.7472,-1.751,-1.756,-1.7576,-1.7602,-1.7626,-1.7635,-1.767,-1.7683,-1.7709,-1.7742,-1.7782,-1.7808,-1.7847,-1.7908,-1.7918,-1.7935,-1.794,-1.7944,-1.7951,-1.7986,-1.7995,-1.7905,-1.7905,-1.7905,0,0,-1.7449,-1.748,-1.7504,-1.7562,-1.7588,-1.763,-1.7614,-1.7658,-1.7689,-1.769,-1.7745,-1.7765,-1.7802,-1.7862,-1.7889,-1.788,-1.7977,-1.795,-1.7953,-1.7957,-1.7991,-1.8,-1.8007,-1.7907,-1.7907,-1.7906,0,0,-1.7503,-1.7529,-1.7575,-1.7602,-1.7643,-1.766,-1.767,-1.7711,-1.7725,-1.778,-1.7782,-1.7818,-1.7886,-1.7914,-1.7937,-1.8001,-1.8001,-1.8013,-1.8042,-1.8076,-1.8083,-1.809,-1.8114,-1.8123,-1.8019,-1.8019,-1.8019,0,-1.752,-1.7583,-1.7598,-1.7643,-1.7669,-1.7672,-1.7719,-1.7744,-1.7794,-1.7812,-1.7801,-1.7887,-1.7913,-1.7979,-1.7995,-1.8013,-1.8026,-1.8009,-1.8081,-1.8088,-1.8094,-1.8118,-1.8127,-1.802,-1.802,-1.802,-1.802,0,-1.7602,-1.7645,-1.7677,-1.7728,-1.7757,-1.7802,-1.7824,-1.7852,-1.7858,-1.7876,-1.7933,-1.7964,-1.8009,-1.8025,-1.8031,-1.8093,-1.8086,-1.8077,-1.8058,-1.8104,-1.8126,-1.8135,-1.8022,-1.8022,-1.8021,-1.8021,0,0,-1.7662,-1.7721,-1.7733,-1.7756,-1.7801,-1.7835,-1.788,-1.7926,-1.795,-1.7984,-1.8024,-1.8081,-1.8074,-1.81,-1.8109,-1.8139,-1.819,-1.8127,-1.8128,-1.8139,-1.8262,-1.8269,-1.828,-1.819,-1.8191,-1.8193,-1.8259,0,-1.7722,-1.7805,-1.782,-1.7891,-1.7932,-1.7936,-1.7976,-1.8008,-1.8026,-1.8063,-1.8082,-1.8124,-1.811,-1.8126,-1.8156,-1.8178,-1.8215,-1.8173,-1.8227,-1.8229,-1.8219,-1.8291,-1.8299,-1.836,-1.8268,-1.8269,-1.827,0,-1.7804,-1.7842,-1.7918,-1.7959,-1.7977,-1.8012,-1.8056,-1.8091,-1.8127,-1.8138,-1.8167,-1.8173,-1.822,-1.8197,-1.8263,-1.8234,-1.8256,-1.827,-1.8273,-1.828,-1.8254,-1.8302,-1.838,-1.839,-1.8284,-1.8283,-1.8282,0,-1.7843,-1.7913,-1.7968,-1.7988,-1.8036,-1.8061,-1.8082,-1.8117,-1.8144,-1.8181,-1.8199,-1.8241,-1.8264,-1.8296,-1.8313,-1.8294,-1.8378,-1.8356,-1.8389,-1.8389,-1.8408,-1.8407,-1.8493,-1.842,-1.8419,-1.8419,-1.8419,0,-1.791,-1.7957,-1.7986,-1.8021,-1.8073,-1.809,-1.8141,-1.8162,-1.8193,-1.8231,-1.8235,-1.8271,-1.829,-1.8328,-1.8341,-1.8395,-1.8404,-1.8415,-1.8418,-1.8416,-1.8415,-1.8432,-1.8429,-1.8422,-1.8421,-1.8421,-1.842,0,-1.7963,-1.7985,-1.8045,-1.8087,-1.8098,-1.8135,-1.817,-1.8203,-1.8221,-1.8269,-1.8281,-1.8309,-1.8354,-1.8374,-1.8429,-1.8438,-1.85,-1.8499,-1.8488,-1.849,-1.8523,-1.852,-1.8625,-1.864,-1.8554,-1.8555,-1.8556,0,-1.8005,-1.8042,-1.8087,-1.8114,-1.8136,-1.8178,-1.8206,-1.8223,-1.8251,-1.8296,-1.8324,-1.8369,-1.8407,-1.8479,-1.8503,-1.8546,-1.8547,-1.8581,-1.8554,-1.855,-1.855,-1.8549,-1.8553,-1.8586,-1.8587,-1.8588,-1.8588,0,-1.8079,-1.8088,-1.8128,-1.8173,-1.8206,-1.8241,-1.8276,-1.8296,-1.8319,-1.8351,-1.8398,-1.8427,-1.8484,-1.8529,-1.8573,-1.8595,-1.8596,-1.8597,-1.8607,-1.8606,-1.8599,-1.8605,-1.8504,-1.8595,-1.8594,-1.8594,-1.8593,-1.8593,-1.813,-1.8163,-1.8201,-1.8245,-1.8273,-1.8306,-1.8339,-1.8362,-1.8401,-1.845,-1.8457,-1.8508,-1.8543,-1.8603,-1.8625,-1.8665,-1.8656,-1.8671,-1.8675,-1.8679,-1.8682,-1.8591,-1.8672,-1.8672,-1.8672,-1.8672,-1.8672,0,-1.8206,-1.823,-1.8271,-1.832,-1.8355,-1.8353,-1.8391,-1.8421,-1.8466,-1.8499,-1.8536,-1.859,-1.8634,-1.8663,-1.8707,-1.8733,-1.8735,-1.8745,-1.8744,-1.8749,-1.8686,-1.8674,-1.8743,-1.8743,-1.8743,-1.8743,-1.8743,-1.8742,-1.8249,-1.8306,-1.832,-1.839,-1.8414,-1.8464,-1.8486,-1.8516,-1.8543,-1.8604,-1.8641,-1.8659,-1.8691,-1.8738,-1.8778,-1.8785,-1.8802,-1.8813,-1.8819,-1.876,-1.8753,-1.8746,-1.8735,-1.8816,-1.8816,-1.8879,-1.888,-1.888]}]]